Voltar ao catálogo

FENGYUN 1C DEB

AtivoSSO
NORAD 29926·DEBRIS·🇨🇳 China

Lançado May 10, 1999 de Taiyuan Satellite Launch Center

Loading…

Próximas Passagens (próximas 24 horas)

TLE

AtualizadoSource: Space-Track

Época: Sep 14, 2026, 10:51 UTC

1 29926U 99025HY  26257.45214069  .00000288  00000-0  86363-4 0  9994
2 29926  98.3088 240.3962 0247004 196.8643 325.5208 14.33939084 25305

Acompanhe FENGYUN 1C DEB em tempo real com AllMySat

Download on the App Store